Weather History for KDIK - September, 2013

Change the Weather History Date:

Monday, September 30, 2013

  Actual Average Record
Temperature  
Mean Temperature 59 °F 51 °F  
Max Temperature 77 °F 64 °F 93 °F (1989)
Min Temperature 41 °F 37 °F 17 °F (1974)
Degree Days  
Heating Degree Days 6 15  
Month to date heating degree days 128 268  
Since 1 July heating degree days 168 354  
Cooling Degree Days 0 0  
Month to date cooling degree days 74 32  
Year to date cooling degree days 386 418  
Growing Degree Days 10 (Base 50)    
Moisture  
Dew Point 41 °F    
Average Humidity 56    
Maximum Humidity 83    
Minimum Humidity 29    
Precipitation  
Precipitation 0.02 in 0.04 in 0.93 in (1977)
Month to date precipitation 3.32 1.47  
Year to date precipitation 16.49 13.76  
Sea Level Pressure  
Sea Level Pressure 29.56 in    
Wind  
Wind Speed 12 mph (SW)    
Max Wind Speed 37 mph    
Max Gust Speed 46 mph    
Visibility 10 miles    
Events      
T = Trace of Precipitation, MM = Missing Value Source: NWS Daily Summary

Daily Weather History Graph

Daily Weather History Graph

Search for Another Location

Airport or City:

Trip Planner

Search our weather history database for the weather conditions in past years. The results will help you decide how hot, cold, wet, or windy it might be!

Date:

Astronomy

Sep. 30, 2013 Rise Set
Actual Time 6:48 AM MDT 6:32 PM MDT
Civil Twilight 6:18 AM MDT 7:02 PM MDT
Nautical Twilight 5:43 AM MDT 7:37 PM MDT
Astronomical Twilight 5:07 AM MDT 8:13 PM MDT
Moon 2:14 AM MDT (9/30) 4:16 PM MDT (9/30)
Length of Visible Light 12h 43m
Length of Day
11h 43m
Waning Crescent, 18% of the Moon is Illuminated
Sep 30
Waning Crescent
Oct 4
New
Oct 11
First Quarter
Oct 18
Full
Oct 26
Last Quarter

Hourly Weather History & Observations

Time (MDT) Temp. Windchill Dew Point Humidity Pressure Visibility Wind Dir Wind Speed Gust Speed Precip Events Conditions
12:56 AM 48.0 °F - 39.9 °F 74% 29.60 in 10.0 mi WSW 6.9 mph - N/A   Clear
1:56 AM 46.0 °F - 37.9 °F 73% 29.60 in 10.0 mi Calm Calm - N/A   Clear
2:56 AM 48.0 °F - 39.0 °F 71% 29.58 in 10.0 mi West 8.1 mph - N/A   Mostly Cloudy
3:56 AM 50.0 °F - 41.0 °F 71% 29.57 in 10.0 mi West 3.5 mph - N/A   Mostly Cloudy
4:56 AM 45.0 °F - 37.9 °F 76% 29.58 in 10.0 mi Calm Calm - N/A   Clear
5:56 AM 42.1 °F 38.4 °F 36.0 °F 79% 29.59 in 10.0 mi South 5.8 mph - N/A   Partly Cloudy
6:56 AM 43.0 °F 41.3 °F 36.0 °F 76% 29.59 in 10.0 mi ESE 3.5 mph - N/A   Clear
7:56 AM 48.9 °F - 41.0 °F 74% 29.56 in 10.0 mi South 5.8 mph - N/A   Partly Cloudy
8:56 AM 57.9 °F - 39.9 °F 51% 29.55 in 10.0 mi South 6.9 mph - N/A   Scattered Clouds
9:56 AM 63.0 °F - 41.0 °F 45% 29.54 in 10.0 mi SSW 9.2 mph - N/A   Clear
10:56 AM 66.9 °F - 39.9 °F 37% 29.52 in 10.0 mi South 18.4 mph 24.2 mph N/A   Clear
11:56 AM 69.1 °F - 39.9 °F 35% 29.48 in 10.0 mi South 19.6 mph 25.3 mph N/A   Clear
12:56 PM 71.1 °F - 42.1 °F 35% 29.46 in 10.0 mi SSW 19.6 mph 24.2 mph N/A   Clear
1:56 PM 75.0 °F - 42.1 °F 31% 29.44 in 10.0 mi SW 13.8 mph 25.3 mph N/A   Clear
2:56 PM 77.0 °F - 43.0 °F 30% 29.42 in 10.0 mi WSW 19.6 mph 28.8 mph N/A   Clear
3:56 PM 75.0 °F - 45.0 °F 34% 29.42 in 10.0 mi WSW 15.0 mph 20.7 mph N/A   Scattered Clouds
4:11 PM 66.2 °F - 46.4 °F 49% 29.50 in 10.0 mi WNW 31.1 mph 44.9 mph N/A   Squalls
4:56 PM 60.1 °F - 45.0 °F 57% 29.55 in 10.0 mi WNW 28.8 mph 40.3 mph 0.00 in   Scattered Clouds
5:56 PM 52.0 °F - 46.0 °F 80% 29.62 in 10.0 mi WNW 19.6 mph 28.8 mph 0.02 in   Overcast
6:56 PM 51.1 °F - 46.0 °F 83% 29.61 in 10.0 mi West 6.9 mph - N/A   Mostly Cloudy
7:56 PM 53.1 °F - 43.0 °F 69% 29.62 in 10.0 mi West 11.5 mph - N/A   Overcast
8:56 PM 52.0 °F - 41.0 °F 66% 29.64 in 10.0 mi West 15.0 mph - N/A   Scattered Clouds
9:56 PM 51.1 °F - 39.9 °F 66% 29.66 in 10.0 mi West 13.8 mph - N/A   Clear
10:56 PM 45.0 °F 40.1 °F 37.9 °F 76% 29.68 in 10.0 mi WSW 9.2 mph - N/A   Clear
11:56 PM 46.9 °F - 37.9 °F 71% 29.69 in 10.0 mi WSW 13.8 mph - N/A   Clear